QPF
0.01 0.00 0.00 0.00 0.00 0.01 0.02 0.02 0.03 0.03 0.02 0.02 0.02 0.01 0.01 0.01 0.02 0.03 0.03 0.03 0.03 0.03 0.03 0.03 0.03 0.03 0.04 0.07 0.06 0.06 0.06 0.06 0.06 0.07 0.08 0.06 0.04 0.03 0.03 0.02 0.02 0.02 0.03 0.02
0.00 0.00 0.00 0.00 0.01 0.01 0.01 0.01 0.01 0.01 0.02 0.02 0.02 0.01 0.01 0.02 0.03 0.03 0.04 0.03 0.03 0.03 0.03 0.04 0.03 0.03 0.05 0.07 0.06 0.07 0.07 0.07 0.07 0.07 0.07 0.06 0.05 0.04 0.03 0.02 0.02 0.02 0.02 0.02
0.01 0.00 0.01 0.01 0.01 0.02 0.01 0.01 0.01 0.01 0.01 0.01 0.01 0.01 0.02 0.02 0.03 0.03 0.04 0.04 0.03 0.04 0.04 0.05 0.04 0.04 0.05 0.07 0.07 0.07 0.08 0.08 0.07 0.07 0.07 0.06 0.05 0.04 0.03 0.03 0.02 0.02 0.02 0.02
0.01 0.01 0.02 0.02 0.01 0.02 0.01 0.01 0.01 0.01 0.01 0.01 0.01 0.01 0.02 0.02 0.03 0.03 0.05 0.04 0.04 0.05 0.05 0.05 0.05 0.05 0.06 0.07 0.08 0.08 0.09 0.08 0.07 0.08 0.07 0.06 0.05 0.05 0.04 0.03 0.03 0.03 0.03 0.03
0.02 0.01 0.01 0.01 0.01 0.01 0.02 0.01 0.01 0.01 0.01 0.01 0.01 0.01 0.02 0.02 0.03 0.04 0.05 0.04 0.05 0.05 0.06 0.06 0.04 0.05 0.05 0.06 0.07 0.08 0.08 0.08 0.07 0.07 0.08 0.07 0.06 0.06 0.05 0.04 0.03 0.03 0.03 0.02
0.02 0.02 0.01 0.01 0.00 0.01 0.01 0.01 0.01 0.01 0.01 0.02 0.02 0.02 0.02 0.03 0.04 0.05 0.05 0.04 0.05 0.06 0.07 0.04 0.03 0.04 0.05 0.05 0.06 0.07 0.06 0.06 0.07 0.07 0.07 0.07 0.06 0.05 0.04 0.04 0.03 0.02 0.02 0.01
0.02 0.02 0.01 0.00 0.01 0.01 0.02 0.02 0.01 0.02 0.02 0.03 0.02 0.02 0.03 0.04 0.05 0.06 0.06 0.05 0.06 0.07 0.05 0.03 0.03 0.04 0.05 0.05 0.05 0.05 0.05 0.05 0.05 0.06 0.05 0.04 0.04 0.03 0.02 0.02 0.02 0.01 0.01 0.01
0.02 0.02 0.01 0.01 0.01 0.01 0.01 0.01 0.01 0.01 0.02 0.02 0.02 0.02 0.03 0.04 0.05 0.06 0.06 0.06 0.05 0.05 0.03 0.02 0.02 0.03 0.04 0.04 0.04 0.04 0.04 0.04 0.03 0.04 0.03 0.03 0.03 0.03 0.03 0.02 0.03 0.02 0.02 0.01
0.01 0.01 0.00 0.01 0.01 0.01 0.01 0.01 0.02 0.02 0.01 0.02 0.02 0.02 0.03 0.04 0.05 0.05 0.06 0.05 0.04 0.03 0.02 0.02 0.02 0.02 0.03 0.03 0.03 0.03 0.03 0.02 0.02 0.02 0.02 0.02 0.02 0.02 0.02 0.02 0.02 0.02 0.02 0.01
0.01 0.01 0.00 0.01 0.01 0.01 0.01 0.01 0.01 0.01 0.01 0.01 0.02 0.02 0.03 0.03 0.04 0.05 0.05 0.05 0.04 0.02 0.02 0.01 0.02 0.02 0.02 0.02 0.02 0.02 0.02 0.01 0.01 0.01 0.02 0.01 0.01 0.01 0.01 0.01 0.01 0.01 0.02 0.02
0.01 0.01 0.00 0.01 0.01 0.01 0.01 0.01 0.01 0.01 0.01 0.01 0.02 0.02 0.02 0.03 0.03 0.04 0.05 0.05 0.04 0.03 0.02 0.02 0.02 0.02 0.02 0.02 0.01 0.01 0.01 0.01 0.01 0.01 0.02 0.02 0.02 0.01 0.01 0.01 0.02 0.02 0.02 0.02
0.01 0.01 0.01 0.01 0.01 0.01 0.01 0.01 0.01 0.01 0.01 0.01 0.01 0.02 0.02 0.03 0.03 0.03 0.03 0.04 0.03 0.03 0.03 0.02 0.02 0.02 0.02 0.02 0.02 0.01 0.01 0.01 0.01 0.01 0.02 0.02 0.02 0.02 0.02 0.02 0.02 0.02 0.02 0.03
0.00 0.00 0.01 0.01 0.01 0.00 0.00 0.00 0.00 0.01 0.01 0.01 0.01 0.01 0.02 0.02 0.03 0.03 0.02 0.02 0.02 0.02 0.02 0.02 0.02 0.02 0.02 0.02 0.02 0.01 0.01 0.01 0.01 0.01 0.02 0.02 0.02 0.02 0.02 0.02 0.02 0.02 0.03 0.04
0.00 0.00 0.01 0.00 0.00 0.00 0.00 0.00 0.00 0.00 0.01 0.01 0.01 0.01 0.01 0.02 0.02 0.02 0.02 0.02 0.02 0.02 0.02 0.02 0.02 0.02 0.01 0.01 0.02 0.02 0.01 0.02 0.02 0.02 0.02 0.02 0.03 0.03 0.02 0.02 0.02 0.02 0.02 0.03
0.00 0.01 0.01 0.00 0.00 0.00 0.00 0.00 0.00 0.00 0.00 0.01 0.01 0.01 0.01 0.01 0.01 0.02 0.01 0.01 0.01 0.01 0.01 0.02 0.01 0.01 0.01 0.01 0.01 0.02 0.02 0.02 0.02 0.02 0.02 0.02 0.02 0.02 0.02 0.02 0.01 0.01 0.02 0.02
0.00 0.00 0.00 0.00 0.00 0.00 0.00 0.00 0.00 0.00 0.00 0.00 0.00 0.01 0.01 0.01 0.01 0.01 0.01 0.01 0.01 0.01 0.01 0.01 0.01 0.01 0.01 0.01 0.01 0.01 0.02 0.02 0.02 0.02 0.02 0.02 0.02 0.02 0.02 0.02 0.02 0.01 0.01 0.01
0.00 0.00 0.00 0.00 0.00 0.00 0.00 0.00 0.00 0.00 0.00 0.00 0.00 0.00 0.00 0.01 0.01 0.01 0.01 0.01 0.01 0.01 0.01 0.01 0.01 0.01 0.01 0.01 0.01 0.01 0.02 0.02 0.02 0.02 0.02 0.01 0.01 0.02 0.02 0.02 0.02 0.02 0.02 0.01
0.00 0.00 0.00 0.00 0.00 0.00 0.00 0.00 0.00 0.00 0.00 0.00 0.00 0.00 0.00 0.01 0.01 0.01 0.01 0.01 0.01 0.01 0.01 0.01 0.02 0.01 0.01 0.01 0.01 0.02 0.02 0.02 0.02 0.02 0.02 0.01 0.01 0.01 0.01 0.02 0.02 0.02 0.02 0.02
0.00 0.00 0.00 0.00 0.00 0.00 0.00 0.00 0.00 0.00 0.00 0.00 0.00 0.00 0.00 0.01 0.01 0.01 0.01 0.01 0.01 0.01 0.01 0.02 0.01 0.01 0.01 0.01 0.02 0.02 0.02 0.02 0.02 0.01 0.01 0.01 0.01 0.01 0.01 0.01 0.02 0.02 0.02 0.01
0.00 0.00 0.00 0.00 0.00 0.00 0.00 0.00 0.00 0.00 0.00 0.00 0.00 0.01 0.01 0.01 0.01 0.01 0.01 0.01 0.01 0.01 0.02 0.02 0.01 0.01 0.01 0.01 0.02 0.02 0.02 0.02 0.02 0.02 0.01 0.01 0.02 0.01 0.01 0.01 0.01 0.02 0.02 0.02
0.00 0.00 0.00 0.00 0.00 0.00 0.00 0.00 0.00 0.00 0.00 0.01 0.01 0.01 0.01 0.01 0.01 0.01 0.01 0.01 0.01 0.01 0.01 0.01 0.01 0.01 0.01 0.01 0.01 0.02 0.02 0.02 0.02 0.02 0.02 0.02 0.02 0.01 0.01 0.01 0.01 0.01 0.02 0.02
0.00 0.00 0.00 0.00 0.00 0.00 0.00 0.00 0.00 0.00 0.00 0.00 0.01 0.01 0.01 0.01 0.01 0.01 0.01 0.01 0.02 0.02 0.02 0.01 0.01 0.01 0.01 0.01 0.01 0.02 0.02 0.02 0.02 0.02 0.02 0.02 0.02 0.02 0.01 0.01 0.01 0.02 0.02 0.02
0.00 0.00 0.00 0.00 0.00 0.00 0.00 0.00 0.00 0.00 0.00 0.00 0.00 0.01 0.01 0.01 0.01 0.01 0.01 0.01 0.02 0.02 0.02 0.02 0.02 0.02 0.01 0.02 0.02 0.02 0.02 0.02 0.02 0.03 0.03 0.03 0.03 0.02 0.02 0.02 0.02 0.02 0.02 0.02
0.00 0.00 0.00 0.00 0.00 0.00 0.00 0.00 0.00 0.00 0.00 0.00 0.01 0.01 0.01 0.01 0.01 0.01 0.01 0.01 0.02 0.02 0.02 0.02 0.02 0.02 0.02 0.02 0.02 0.02 0.02 0.02 0.02 0.03 0.03 0.03 0.03 0.03 0.03 0.02 0.02 0.02 0.02 0.02
0.00 0.01 0.01 0.01 0.00 0.00 0.00 0.00 0.00 0.00 0.00 0.01 0.01 0.01 0.01 0.01 0.01 0.01 0.01 0.01 0.02 0.02 0.02 0.02 0.02 0.02 0.02 0.02 0.03 0.03 0.02 0.03 0.03 0.03 0.03 0.03 0.03 0.03 0.03 0.03 0.03 0.02 0.02 0.01
0.01 0.01 0.01 0.01 0.01 0.01 0.01 0.00 0.01 0.01 0.01 0.01 0.01 0.01 0.01 0.01 0.01 0.01 0.01 0.01 0.02 0.02 0.02 0.02 0.02 0.02 0.02 0.03 0.03 0.03 0.03 0.03 0.03 0.03 0.03 0.03 0.03 0.03 0.03 0.03 0.03 0.02 0.02 0.01
0.00 0.00 0.01 0.01 0.01 0.01 0.01 0.01 0.01 0.01 0.01 0.01 0.01 0.01 0.01 0.01 0.01 0.01 0.01 0.01 0.01 0.02 0.02 0.02 0.02 0.02 0.03 0.03 0.03 0.03 0.03 0.02 0.03 0.03 0.03 0.03 0.03 0.03 0.03 0.03 0.02 0.02 0.02 0.01
MSLP
1029.10 1028.91 1028.73 1028.54 1028.32 1028.04 1027.66 1027.18 1026.59 1025.90 1025.15 1024.37 1023.62 1022.93 1022.32 1021.79 1021.33 1020.89 1020.43 1019.91 1019.30 1018.60 1017.81 1016.99 1016.18 1015.46 1014.89 1014.54 1014.41 1014.53 1014.87 1015.40 1016.06 1016.81 1017.61 1018.41 1019.19 1019.94 1020.65 1021.32 1021.96 1022.56 1023.11 1023.63
1029.32 1029.04 1028.76 1028.48 1028.18 1027.83 1027.42 1026.92 1026.34 1025.68 1024.97 1024.26 1023.57 1022.96 1022.42 1021.97 1021.59 1021.23 1020.86 1020.43 1019.90 1019.28 1018.55 1017.77 1016.98 1016.25 1015.63 1015.19 1014.97 1014.97 1015.19 1015.61 1016.18 1016.86 1017.60 1018.36 1019.12 1019.86 1020.56 1021.22 1021.84 1022.43 1022.97 1023.48
1029.54 1029.11 1028.69 1028.26 1027.84 1027.39 1026.92 1026.40 1025.83 1025.23 1024.60 1023.98 1023.40 1022.89 1022.46 1022.10 1021.79 1021.51 1021.20 1020.84 1020.37 1019.80 1019.13 1018.39 1017.61 1016.87 1016.23 1015.74 1015.45 1015.37 1015.50 1015.83 1016.33 1016.94 1017.63 1018.36 1019.10 1019.81 1020.49 1021.13 1021.74 1022.31 1022.84 1023.33
1029.79 1029.19 1028.60 1028.01 1027.45 1026.91 1026.38 1025.85 1025.31 1024.78 1024.26 1023.76 1023.30 1022.90 1022.56 1022.27 1022.02 1021.78 1021.50 1021.14 1020.69 1020.14 1019.48 1018.75 1017.99 1017.25 1016.60 1016.10 1015.77 1015.65 1015.74 1016.02 1016.47 1017.03 1017.69 1018.39 1019.09 1019.78 1020.44 1021.06 1021.64 1022.19 1022.71 1023.20
1030.01 1029.27 1028.53 1027.81 1027.13 1026.52 1025.96 1025.44 1024.97 1024.53 1024.12 1023.74 1023.40 1023.09 1022.82 1022.57 1022.32 1022.06 1021.74 1021.34 1020.84 1020.25 1019.57 1018.83 1018.07 1017.34 1016.71 1016.21 1015.90 1015.78 1015.86 1016.12 1016.55 1017.10 1017.73 1018.41 1019.09 1019.76 1020.39 1020.99 1021.55 1022.08 1022.58 1023.06
1030.12 1029.29 1028.45 1027.65 1026.93 1026.29 1025.74 1025.28 1024.89 1024.55 1024.26 1023.99 1023.74 1023.49 1023.24 1022.97 1022.68 1022.33 1021.91 1021.40 1020.81 1020.14 1019.40 1018.63 1017.87 1017.16 1016.56 1016.11 1015.83 1015.75 1015.86 1016.14 1016.58 1017.13 1017.75 1018.41 1019.08 1019.73 1020.34 1020.92 1021.46 1021.96 1022.45 1022.92
1030.04 1029.18 1028.32 1027.51 1026.80 1026.21 1025.72 1025.35 1025.06 1024.83 1024.63 1024.45 1024.25 1024.02 1023.75 1023.41 1023.01 1022.53 1021.97 1021.33 1020.61 1019.83 1019.03 1018.23 1017.46 1016.79 1016.23 1015.84 1015.63 1015.61 1015.77 1016.10 1016.56 1017.12 1017.75 1018.40 1019.06 1019.69 1020.28 1020.84 1021.36 1021.86 1022.34 1022.80
1029.71 1028.88 1028.07 1027.34 1026.71 1026.21 1025.83 1025.57 1025.39 1025.25 1025.13 1025.00 1024.81 1024.56 1024.22 1023.78 1023.24 1022.61 1021.89 1021.10 1020.25 1019.38 1018.51 1017.69 1016.94 1016.31 1015.82 1015.51 1015.38 1015.44 1015.67 1016.04 1016.53 1017.11 1017.74 1018.39 1019.03 1019.65 1020.23 1020.78 1021.29 1021.78 1022.25 1022.72
1029.13 1028.39 1027.70 1027.09 1026.60 1026.23 1025.98 1025.83 1025.75 1025.69 1025.61 1025.49 1025.28 1024.96 1024.53 1023.97 1023.30 1022.52 1021.65 1020.73 1019.78 1018.84 1017.94 1017.12 1016.41 1015.84 1015.44 1015.21 1015.17 1015.30 1015.59 1016.01 1016.53 1017.12 1017.75 1018.39 1019.02 1019.62 1020.20 1020.74 1021.25 1021.75 1022.23 1022.70
1028.39 1027.78 1027.24 1026.79 1026.45 1026.23 1026.10 1026.04 1026.03 1026.00 1025.94 1025.79 1025.52 1025.12 1024.59 1023.91 1023.12 1022.23 1021.26 1020.26 1019.25 1018.29 1017.40 1016.61 1015.97 1015.48 1015.16 1015.02 1015.06 1015.25 1015.59 1016.03 1016.57 1017.16 1017.78 1018.41 1019.02 1019.62 1020.19 1020.74 1021.27 1021.77 1022.27 1022.75
1027.61 1027.16 1026.78 1026.49 1026.30 1026.19 1026.16 1026.17 1026.17 1026.14 1026.04 1025.83 1025.48 1025.00 1024.37 1023.60 1022.72 1021.76 1020.75 1019.72 1018.72 1017.79 1016.95 1016.23 1015.67 1015.26 1015.03 1014.97 1015.07 1015.31 1015.67 1016.13 1016.66 1017.23 1017.83 1018.45 1019.05 1019.65 1020.23 1020.79 1021.33 1021.87 1022.39 1022.90
1026.98 1026.67 1026.43 1026.28 1026.21 1026.19 1026.20 1026.21 1026.19 1026.10 1025.92 1025.62 1025.19 1024.61 1023.90 1023.08 1022.17 1021.19 1020.19 1019.19 1018.25 1017.39 1016.63 1016.00 1015.53 1015.21 1015.05 1015.05 1015.19 1015.45 1015.81 1016.26 1016.77 1017.33 1017.91 1018.50 1019.10 1019.70 1020.29 1020.88 1021.46 1022.03 1022.58 1023.12
1026.61 1026.43 1026.32 1026.27 1026.26 1026.27 1026.27 1026.23 1026.13 1025.95 1025.66 1025.25 1024.72 1024.07 1023.31 1022.46 1021.54 1020.60 1019.65 1018.73 1017.87 1017.10 1016.44 1015.91 1015.52 1015.27 1015.17 1015.20 1015.36 1015.62 1015.98 1016.41 1016.89 1017.42 1017.99 1018.57 1019.17 1019.77 1020.39 1021.01 1021.62 1022.23 1022.81 1023.38
1026.59 1026.52 1026.50 1026.51 1026.51 1026.50 1026.44 1026.31 1026.09 1025.77 1025.36 1024.83 1024.20 1023.49 1022.69 1021.84 1020.96 1020.07 1019.20 1018.37 1017.61 1016.94 1016.37 1015.92 1015.59 1015.39 1015.32 1015.37 1015.53 1015.78 1016.12 1016.53 1016.99 1017.50 1018.05 1018.63 1019.24 1019.87 1020.51 1021.16 1021.81 1022.45 1023.07 1023.66
1026.91 1026.93 1026.96 1026.99 1026.97 1026.89 1026.73 1026.47 1026.11 1025.65 1025.10 1024.46 1023.75 1022.98 1022.17 1021.34 1020.50 1019.68 1018.88 1018.14 1017.47 1016.87 1016.37 1015.97 1015.69 1015.51 1015.45 1015.50 1015.65 1015.90 1016.22 1016.61 1017.07 1017.57 1018.12 1018.71 1019.34 1019.99 1020.66 1021.34 1022.02 1022.69 1023.33 1023.93
1027.49 1027.57 1027.64 1027.65 1027.58 1027.41 1027.12 1026.73 1026.22 1025.62 1024.95 1024.21 1023.43 1022.63 1021.81 1021.00 1020.21 1019.45 1018.72 1018.04 1017.43 1016.88 1016.42 1016.05 1015.78 1015.60 1015.54 1015.58 1015.72 1015.96 1016.28 1016.67 1017.14 1017.66 1018.22 1018.84 1019.48 1020.15 1020.85 1021.55 1022.25 1022.93 1023.58 1024.18
1028.20 1028.33 1028.41 1028.39 1028.25 1027.97 1027.56 1027.03 1026.39 1025.67 1024.90 1024.08 1023.26 1022.44 1021.64 1020.86 1020.11 1019.39 1018.71 1018.07 1017.49 1016.96 1016.50 1016.13 1015.85 1015.66 1015.59 1015.63 1015.77 1016.01 1016.34 1016.76 1017.24 1017.79 1018.39 1019.03 1019.70 1020.39 1021.09 1021.80 1022.50 1023.18 1023.82 1024.42
1028.90 1029.07 1029.13 1029.07 1028.85 1028.48 1027.96 1027.31 1026.57 1025.76 1024.92 1024.06 1023.22 1022.40 1021.62 1020.87 1020.16 1019.48 1018.83 1018.21 1017.63 1017.09 1016.62 1016.23 1015.93 1015.73 1015.65 1015.68 1015.84 1016.10 1016.46 1016.92 1017.44 1018.03 1018.66 1019.32 1020.01 1020.71 1021.41 1022.11 1022.79 1023.45 1024.07 1024.64
1029.48 1029.65 1029.69 1029.58 1029.29 1028.83 1028.22 1027.49 1026.68 1025.83 1024.95 1024.09 1023.26 1022.48 1021.73 1021.03 1020.35 1019.69 1019.06 1018.44 1017.85 1017.30 1016.81 1016.39 1016.07 1015.86 1015.78 1015.83 1016.01 1016.31 1016.71 1017.21 1017.78 1018.40 1019.06 1019.74 1020.43 1021.12 1021.81 1022.48 1023.12 1023.75 1024.32 1024.86
1029.85 1030.01 1030.02 1029.85 1029.50 1028.97 1028.31 1027.53 1026.69 1025.82 1024.96 1024.13 1023.35 1022.61 1021.92 1021.26 1020.63 1020.00 1019.38 1018.77 1018.17 1017.60 1017.09 1016.66 1016.33 1016.12 1016.05 1016.13 1016.34 1016.68 1017.13 1017.66 1018.27 1018.92 1019.59 1020.27 1020.95 1021.61 1022.26 1022.89 1023.49 1024.06 1024.59 1025.09
1030.00 1030.15 1030.11 1029.89 1029.48 1028.91 1028.21 1027.42 1026.59 1025.75 1024.94 1024.16 1023.45 1022.79 1022.17 1021.57 1020.98 1020.39 1019.79 1019.19 1018.60 1018.03 1017.52 1017.08 1016.76 1016.57 1016.52 1016.62 1016.87 1017.24 1017.72 1018.29 1018.91 1019.57 1020.23 1020.89 1021.53 1022.15 1022.75 1023.32 1023.87 1024.38 1024.87 1025.33
1029.97 1030.08 1030.00 1029.73 1029.28 1028.69 1027.98 1027.21 1026.41 1025.63 1024.90 1024.21 1023.59 1023.01 1022.47 1021.95 1021.42 1020.88 1020.31 1019.74 1019.16 1018.60 1018.11 1017.69 1017.39 1017.22 1017.19 1017.33 1017.60 1017.99 1018.49 1019.06 1019.68 1020.31 1020.95 1021.56 1022.15 1022.71 1023.24 1023.75 1024.24 1024.70 1025.15 1025.56
1029.80 1029.87 1029.74 1029.43 1028.96 1028.36 1027.68 1026.95 1026.23 1025.53 1024.89 1024.31 1023.79 1023.31 1022.86 1022.42 1021.95 1021.47 1020.95 1020.41 1019.86 1019.34 1018.87 1018.49 1018.21 1018.07 1018.08 1018.23 1018.52 1018.92 1019.41 1019.96 1020.54 1021.13 1021.70 1022.25 1022.77 1023.26 1023.72 1024.16 1024.59 1025.00 1025.40 1025.79
1029.54 1029.56 1029.40 1029.07 1028.60 1028.02 1027.38 1026.72 1026.09 1025.49 1024.96 1024.50 1024.08 1023.71 1023.35 1022.99 1022.59 1022.16 1021.70 1021.21 1020.71 1020.23 1019.81 1019.46 1019.23 1019.12 1019.15 1019.31 1019.59 1019.98 1020.43 1020.94 1021.46 1021.98 1022.47 1022.94 1023.38 1023.78 1024.17 1024.55 1024.92 1025.28 1025.65 1026.00
1029.22 1029.20 1029.01 1028.68 1028.23 1027.70 1027.13 1026.57 1026.04 1025.56 1025.15 1024.80 1024.50 1024.22 1023.95 1023.66 1023.34 1022.97 1022.56 1022.13 1021.68 1021.26 1020.88 1020.59 1020.39 1020.31 1020.36 1020.53 1020.79 1021.15 1021.55 1021.99 1022.43 1022.86 1023.26 1023.63 1023.98 1024.30 1024.61 1024.92 1025.24 1025.56 1025.89 1026.21
1028.85 1028.80 1028.60 1028.29 1027.88 1027.42 1026.95 1026.50 1026.09 1025.75 1025.46 1025.22 1025.03 1024.84 1024.65 1024.43 1024.17 1023.86 1023.51 1023.13 1022.75 1022.38 1022.07 1021.82 1021.67 1021.62 1021.68 1021.84 1022.09 1022.39 1022.74 1023.10 1023.45 1023.78 1024.08 1024.35 1024.60 1024.84 1025.08 1025.32 1025.57 1025.85 1026.13 1026.42
1028.42 1028.35 1028.16 1027.88 1027.55 1027.18 1026.83 1026.51 1026.23 1026.01 1025.85 1025.73 1025.63 1025.53 1025.41 1025.25 1025.05 1024.79 1024.50 1024.18 1023.86 1023.56 1023.30 1023.11 1023.01 1023.00 1023.07 1023.23 1023.45 1023.71 1023.99 1024.26 1024.52 1024.75 1024.96 1025.13 1025.28 1025.43 1025.58 1025.75 1025.95 1026.16 1026.40 1026.64
Thickness
5435 5440 5440 5437 5433 5430 5426 5433 5435 5447 5451 5452 5450 5451 5451 5451 5451 5451 5451 5452 5452 5452 5453 5455 5456 5458 5461 5463 5465 5467 5468 5470 5473 5475 5478 5480 5482 5483 5483 5484 5485 5486 5486 5486
5428 5441 5438 5434 5436 5433 5430 5431 5432 5436 5441 5446 5446 5445 5444 5442 5442 5442 5442 5442 5443 5444 5445 5445 5447 5449 5452 5454 5456 5457 5459 5461 5464 5466 5468 5470 5472 5473 5473 5474 5475 5476 5475 5476
5424 5434 5430 5426 5434 5430 5429 5428 5426 5427 5435 5438 5439 5438 5436 5435 5434 5434 5433 5433 5434 5434 5435 5437 5438 5440 5443 5445 5447 5448 5449 5452 5454 5456 5458 5460 5462 5463 5463 5464 5465 5465 5465 5465
5412 5414 5412 5434 5433 5431 5425 5423 5424 5426 5428 5430 5431 5431 5430 5429 5427 5427 5426 5425 5426 5426 5428 5429 5430 5433 5435 5436 5437 5439 5440 5442 5444 5446 5448 5450 5451 5452 5452 5454 5454 5454 5454 5454
5403 5405 5419 5429 5427 5420 5413 5413 5420 5420 5422 5423 5424 5424 5423 5423 5422 5420 5419 5419 5419 5419 5420 5421 5423 5425 5426 5427 5429 5430 5431 5432 5434 5436 5438 5439 5440 5441 5442 5442 5443 5443 5443 5444
5397 5398 5408 5425 5417 5414 5408 5406 5415 5414 5413 5413 5412 5410 5413 5415 5415 5413 5413 5412 5412 5413 5415 5415 5416 5417 5418 5419 5420 5420 5422 5423 5425 5426 5427 5428 5430 5431 5431 5432 5432 5432 5433 5434
5387 5391 5405 5414 5408 5407 5399 5406 5408 5408 5406 5404 5401 5401 5405 5406 5406 5405 5405 5404 5405 5407 5408 5409 5409 5409 5410 5410 5411 5412 5413 5414 5415 5416 5417 5418 5419 5420 5421 5421 5421 5421 5423 5423
5384 5385 5397 5403 5399 5394 5396 5401 5400 5400 5399 5395 5394 5396 5397 5396 5396 5396 5396 5396 5397 5398 5399 5400 5401 5401 5402 5402 5403 5404 5405 5406 5406 5407 5408 5410 5411 5411 5411 5411 5411 5411 5411 5412
5391 5398 5404 5399 5395 5394 5393 5392 5392 5390 5390 5388 5387 5386 5387 5387 5387 5387 5388 5388 5389 5389 5390 5391 5392 5393 5393 5394 5395 5396 5396 5397 5397 5398 5399 5400 5401 5401 5401 5401 5401 5401 5401 5402
5389 5396 5398 5395 5393 5391 5389 5386 5385 5384 5382 5381 5378 5378 5378 5379 5379 5379 5380 5380 5380 5381 5382 5382 5383 5384 5384 5386 5387 5388 5388 5388 5389 5390 5390 5391 5392 5393 5393 5393 5392 5393 5392 5392
5382 5389 5392 5393 5389 5386 5383 5381 5378 5377 5376 5374 5372 5371 5371 5371 5371 5371 5372 5372 5372 5372 5373 5373 5374 5375 5376 5378 5380 5380 5380 5380 5380 5381 5381 5382 5383 5383 5384 5384 5384 5385 5384 5383
5388 5391 5384 5386 5386 5382 5377 5374 5372 5370 5369 5368 5366 5365 5364 5363 5363 5364 5364 5364 5364 5364 5364 5365 5366 5367 5369 5370 5371 5372 5372 5371 5371 5372 5373 5373 5373 5373 5374 5375 5376 5376 5376 5376
5391 5389 5384 5383 5380 5377 5372 5370 5368 5365 5363 5361 5360 5359 5357 5356 5356 5356 5356 5356 5356 5356 5357 5357 5358 5359 5360 5361 5363 5363 5362 5363 5363 5363 5364 5364 5364 5364 5364 5365 5365 5366 5367 5367
5386 5381 5377 5376 5372 5370 5367 5365 5362 5360 5358 5356 5354 5352 5350 5349 5349 5349 5349 5349 5349 5349 5350 5350 5350 5351 5352 5353 5354 5354 5354 5355 5355 5355 5355 5355 5355 5355 5355 5355 5355 5355 5357 5358
5379 5375 5372 5370 5367 5364 5361 5358 5355 5353 5351 5350 5348 5346 5344 5342 5342 5342 5342 5343 5342 5342 5342 5342 5342 5343 5344 5345 5346 5346 5346 5347 5347 5347 5347 5347 5346 5346 5346 5347 5347 5347 5347 5348
5372 5369 5365 5362 5360 5358 5355 5352 5349 5347 5345 5343 5341 5340 5338 5336 5336 5336 5336 5336 5335 5335 5335 5335 5335 5335 5336 5337 5338 5338 5339 5341 5341 5340 5340 5339 5339 5339 5339 5339 5338 5339 5339 5339
5363 5361 5358 5355 5354 5352 5350 5347 5345 5342 5340 5337 5335 5334 5332 5331 5330 5329 5329 5329 5329 5329 5329 5328 5328 5329 5329 5330 5330 5331 5332 5333 5334 5333 5333 5332 5332 5332 5332 5331 5331 5331 5332 5332
5360 5358 5354 5351 5348 5346 5344 5342 5339 5336 5334 5332 5329 5327 5325 5324 5324 5323 5323 5322 5322 5322 5323 5323 5322 5322 5322 5323 5323 5324 5325 5326 5326 5326 5326 5325 5325 5325 5325 5324 5324 5324 5325 5325
5353 5350 5348 5346 5343 5340 5337 5335 5332 5330 5328 5326 5324 5321 5320 5319 5318 5317 5316 5316 5315 5315 5316 5316 5317 5316 5316 5317 5317 5318 5319 5319 5319 5319 5319 5319 5319 5319 5318 5318 5318 5318 5318 5318
5345 5343 5340 5337 5335 5332 5330 5327 5325 5323 5321 5319 5317 5315 5313 5313 5312 5311 5310 5309 5309 5309 5310 5310 5310 5309 5310 5310 5311 5312 5312 5312 5312 5312 5312 5312 5313 5313 5312 5312 5312 5312 5312 5312
5336 5334 5333 5330 5328 5326 5323 5320 5318 5316 5314 5312 5310 5309 5307 5307 5306 5305 5304 5304 5304 5304 5304 5305 5304 5304 5304 5305 5305 5305 5306 5306 5306 5306 5306 5306 5307 5307 5307 5306 5306 5306 5306 5306
5328 5326 5325 5323 5320 5318 5316 5314 5311 5309 5307 5305 5303 5302 5300 5300 5299 5298 5298 5298 5298 5299 5299 5298 5298 5298 5299 5299 5298 5298 5299 5299 5300 5300 5300 5301 5301 5301 5301 5301 5301 5301 5301 5301
5322 5320 5318 5316 5313 5311 5309 5307 5304 5302 5300 5299 5297 5295 5294 5294 5293 5293 5292 5292 5292 5293 5293 5292 5293 5293 5294 5293 5292 5292 5293 5293 5293 5294 5294 5295 5295 5295 5296 5296 5296 5296 5296 5296
5315 5314 5311 5308 5306 5304 5302 5300 5298 5296 5294 5292 5291 5290 5288 5288 5287 5287 5287 5287 5287 5288 5286 5286 5287 5288 5288 5286 5286 5286 5287 5287 5287 5288 5288 5289 5289 5290 5290 5291 5292 5292 5292 5292
5310 5307 5304 5302 5300 5300 5298 5295 5292 5290 5288 5286 5285 5284 5283 5282 5282 5281 5280 5281 5281 5281 5280 5280 5281 5281 5280 5280 5280 5280 5280 5281 5281 5282 5283 5283 5284 5285 5286 5287 5287 5288 5289 5289
5305 5303 5301 5299 5298 5296 5294 5292 5289 5287 5285 5282 5281 5279 5278 5277 5276 5275 5275 5275 5275 5275 5274 5274 5274 5274 5274 5274 5274 5274 5275 5275 5276 5277 5278 5278 5279 5280 5281 5283 5283 5285 5286 5286
5301 5299 5296 5295 5294 5292 5291 5289 5286 5284 5282 5279 5277 5275 5273 5272 5271 5270 5269 5269 5268 5268 5268 5268 5268 5268 5268 5269 5269 5269 5270 5271 5272 5273 5273 5274 5275 5276 5277 5279 5280 5282 5283 5284